Volver al catálogo

FREGAT R/B

LostMEO
NORAD 65591·ROCKET BODY·🇷🇺 Russia

Lanzado Sep 13, 2025 desde Plesetsk Cosmodrome

Loading…

Próximos Pases (próximas 24 horas)

TLE

ObsoletoSource: Space-Track

Época: Jun 22, 2026, 22:41 UTC

1 65591U 25206C   26173.94520198 -.00000078  00000-0  00000-0 0  9994
2 65591  64.6387 314.6277 0010646 176.1218 183.8795  2.14651457  6085

Sigue FREGAT R/B en tiempo real con AllMySat

Download on the App Store